Weather History for Langdon, ND

Change the Weather History Date:

Wednesday, December 19, 2012

  Actual Average (KDVL) Record (KDVL)
Temperature  
Mean Temperature 8 °F -  
Max Temperature 17 °F 15 °F 45 °F (1979)
Min Temperature 0 °F 0 °F -28 °F (1983)
Degree Days  
Heating Degree Days 56    
Moisture  
Dew Point 12 °F    
Average Humidity 96    
Maximum Humidity 100    
Minimum Humidity 85    
Precipitation  
Precipitation 0.22 in - - ()
Sea Level Pressure  
Sea Level Pressure 29.82 in    
Wind  
Wind Speed 10 mph (North)    
Max Wind Speed 15 mph    
Max Gust Speed -    
Visibility 6 miles    
Events Snow    
Averages and records for this station are not official NWS values.
T = Trace of Precipitation, MM = Missing Value Source: NWS Daily Summary

Daily Weather History Graph

Daily Weather History Graph

Search for Another Location

Airport:

Trip Planner

Search our weather history database for the weather conditions in past years. The results will help you decide how hot, cold, wet, or windy it might be!

Date:

Astronomy

Dec. 19, 2012 Rise Set
Actual Time 8:23 AM CST 4:38 PM CST
Civil Twilight 7:45 AM CST 5:16 PM CST
Nautical Twilight 7:05 AM CST 5:56 PM CST
Astronomical Twilight 6:27 AM CST 6:34 PM CST
Moon 11:59 AM CST (12/19) No Moon Set
Length of Visible Light 9h 30m
Length of Day
8h 15m
Waxing Crescent, 45% of the Moon is Illuminated
Dec 19
Waxing Crescent
Dec 19
First Quarter
Dec 28
Full
Jan 4
Last Quarter
Jan 11
New

Hourly Weather History & Observations

Time (CST) Temp. Windchill Dew Point Humidity Pressure Visibility Wind Dir Wind Speed Gust Speed Precip Events Conditions
12:15 AM 17.6 °F 7.3 °F 17.6 °F 100% 29.64 in 5.0 mi East 8.1 mph - N/A   Overcast
12:35 AM 17.6 °F 6.4 °F 17.6 °F 100% 29.64 in 5.0 mi East 9.2 mph - N/A   Overcast
12:55 AM 17.6 °F 6.4 °F 17.6 °F 100% 29.64 in 4.0 mi East 9.2 mph - N/A   Overcast
1:15 AM 17.6 °F 6.4 °F 17.6 °F 100% 29.65 in 3.0 mi East 9.2 mph - N/A   Overcast
1:35 AM 17.6 °F 5.7 °F 17.6 °F 100% 29.65 in 3.0 mi East 10.4 mph - N/A   Overcast
1:55 AM 17.6 °F 6.4 °F 17.6 °F 100% 29.65 in 2.5 mi East 9.2 mph - N/A   Overcast
2:15 AM 17.6 °F 5.7 °F 17.6 °F 100% 29.65 in 2.5 mi ENE 10.4 mph - N/A   Overcast
2:35 AM 17.6 °F 5.7 °F 17.6 °F 100% 29.66 in 1.5 mi East 10.4 mph - N/A   Overcast
2:55 AM 17.6 °F 6.4 °F 17.6 °F 100% 29.66 in 1.0 mi East 9.2 mph - N/A Snow Light Snow
3:15 AM 17.6 °F 5.7 °F 17.6 °F 100% 29.66 in 1.2 mi East 10.4 mph - N/A Snow Light Snow
3:35 AM 17.6 °F 5.7 °F 17.6 °F 100% 29.66 in 0.8 mi ENE 10.4 mph - N/A Snow Light Snow
3:55 AM 17.6 °F 6.4 °F 17.6 °F 100% 29.66 in 0.8 mi ENE 9.2 mph - N/A Snow Light Snow
4:15 AM 17.6 °F 5.0 °F 17.6 °F 100% 29.66 in 0.8 mi ENE 11.5 mph - N/A   Overcast
4:35 AM 17.6 °F 5.0 °F 17.6 °F 100% 29.65 in 1.0 mi ENE 11.5 mph - N/A   Overcast
4:55 AM 17.6 °F 5.0 °F 17.6 °F 100% 29.66 in 1.2 mi ENE 11.5 mph - 0.04 in Snow Light Snow
5:15 AM 17.6 °F 4.3 °F 17.6 °F 100% 29.66 in 1.8 mi ENE 12.7 mph - 0.01 in Snow Light Snow
5:35 AM 17.6 °F 5.0 °F 17.6 °F 100% 29.67 in 1.2 mi NE 11.5 mph - 0.09 in Snow Light Snow
5:55 AM 17.6 °F 5.0 °F 15.8 °F 93% 29.67 in 3.0 mi NE 11.5 mph - 0.11 in Snow Light Snow
6:15 AM 15.8 °F 2.7 °F 15.8 °F 100% 29.68 in 5.0 mi NE 11.5 mph - N/A Snow Light Snow
6:35 AM 15.8 °F 3.4 °F 15.8 °F 100% 29.69 in 7.0 mi NE 10.4 mph - N/A   Overcast
6:55 AM 15.8 °F 3.4 °F 14.0 °F 93% 29.70 in 7.0 mi NE 10.4 mph - N/A   Overcast
7:15 AM 15.8 °F 4.2 °F 14.0 °F 93% 29.71 in 9.0 mi NE 9.2 mph - N/A   Overcast
7:35 AM 14.0 °F 2.0 °F 14.0 °F 100% 29.71 in 4.0 mi NE 9.2 mph - N/A Snow Light Snow
7:55 AM 14.0 °F 1.2 °F 14.0 °F 100% 29.71 in 4.0 mi NE 10.4 mph - 0.01 in Snow Light Snow
8:15 AM 14.0 °F 0.5 °F 14.0 °F 100% 29.72 in 4.0 mi NE 11.5 mph - N/A Snow Light Snow
8:35 AM 14.0 °F 0.5 °F 14.0 °F 100% 29.72 in 4.0 mi NE 11.5 mph - 0.01 in Snow Light Snow
8:55 AM 14.0 °F 2.0 °F 14.0 °F 100% 29.74 in 3.0 mi NE 9.2 mph - 0.02 in Snow Light Snow
9:15 AM 14.0 °F 0.5 °F 12.2 °F 93% 29.74 in 4.0 mi NNE 11.5 mph - N/A Snow Light Snow
9:35 AM 14.0 °F 1.2 °F 14.0 °F 100% 29.76 in 4.0 mi North 10.4 mph - 0.01 in Snow Light Snow
9:55 AM 14.0 °F 1.2 °F 14.0 °F 100% 29.76 in 2.0 mi North 10.4 mph - 0.02 in Snow Light Snow
10:15 AM 14.0 °F 0.5 °F 12.2 °F 93% 29.77 in 2.0 mi North 11.5 mph - N/A Snow Light Snow
10:35 AM 14.0 °F 1.2 °F 14.0 °F 100% 29.79 in 5.0 mi North 10.4 mph - 0.01 in Snow Light Snow
10:55 AM 14.0 °F -0.2 °F 14.0 °F 100% 29.79 in 9.0 mi North 12.7 mph - 0.01 in Snow Light Snow
11:15 AM 14.0 °F -0.8 °F 14.0 °F 100% 29.79 in 10.0 mi North 13.8 mph - N/A   Overcast
11:35 AM 14.0 °F -0.8 °F 14.0 °F 100% 29.80 in 10.0 mi North 13.8 mph - N/A Snow Light Snow
11:55 AM 14.0 °F -0.8 °F 14.0 °F 100% 29.81 in 10.0 mi North 13.8 mph - N/A Snow Light Snow
12:15 PM 15.8 °F 2.7 °F 14.0 °F 93% 29.82 in 10.0 mi NNW 11.5 mph - N/A Snow Light Snow
12:35 PM 15.8 °F 2.1 °F 14.0 °F 93% 29.82 in 6.0 mi North 12.7 mph - N/A Snow Light Snow
12:55 PM 15.8 °F 2.1 °F 14.0 °F 93% 29.83 in 8.0 mi NNW 12.7 mph - 0.01 in Snow Light Snow
1:15 PM 15.8 °F 2.7 °F 14.0 °F 93% 29.83 in 7.0 mi NNW 11.5 mph - N/A Snow Light Snow
1:35 PM 15.8 °F 1.4 °F 14.0 °F 93% 29.84 in 7.0 mi NNW 13.8 mph - N/A Snow Light Snow
1:55 PM 15.8 °F 0.9 °F 14.0 °F 93% 29.84 in 9.0 mi NNW 15.0 mph - N/A Snow Light Snow
2:15 PM 14.0 °F -0.8 °F 14.0 °F 100% 29.85 in 10.0 mi NNW 13.8 mph - N/A Snow Light Snow
2:35 PM 14.0 °F -0.8 °F 14.0 °F 100% 29.86 in 9.0 mi NNW 13.8 mph - N/A   Overcast
2:55 PM 14.0 °F -0.8 °F 14.0 °F 100% 29.87 in 8.0 mi NNW 13.8 mph - N/A   Overcast
3:15 PM 14.0 °F -0.8 °F 12.2 °F 93% 29.89 in 10.0 mi NNW 13.8 mph - N/A   Overcast
3:35 PM 14.0 °F 1.2 °F 12.2 °F 93% 29.90 in 9.0 mi North 10.4 mph - N/A   Mostly Cloudy
3:55 PM 14.0 °F -0.2 °F 10.4 °F 86% 29.91 in 10.0 mi NNW 12.7 mph - N/A   Overcast
4:15 PM 12.2 °F -3.7 °F 10.4 °F 92% 29.92 in 10.0 mi NNW 15.0 mph - N/A   Overcast
4:35 PM 12.2 °F -1.8 °F 10.4 °F 92% 29.93 in 5.0 mi NNW 11.5 mph - N/A Snow Light Snow
4:55 PM 12.2 °F -2.5 °F 10.4 °F 92% 29.93 in 5.0 mi NNW 12.7 mph - N/A Snow Light Snow
5:15 PM 12.2 °F 1.7 °F 10.4 °F 92% 29.94 in 10.0 mi NW 6.9 mph - N/A   Overcast
5:35 PM 12.2 °F 0.7 °F 10.4 °F 92% 29.96 in 10.0 mi NW 8.1 mph - N/A   Overcast
5:55 PM 12.2 °F -1.0 °F 10.4 °F 92% 29.96 in 10.0 mi NW 10.4 mph - N/A   Overcast
6:15 PM 10.4 °F -2.4 °F 10.4 °F 100% 29.97 in 10.0 mi NW 9.2 mph - N/A   Overcast
6:35 PM 12.2 °F -0.2 °F 10.4 °F 92% 29.98 in 10.0 mi NW 9.2 mph - N/A   Overcast
6:55 PM 12.2 °F -0.2 °F 10.4 °F 92% 29.98 in 10.0 mi NW 9.2 mph - N/A Snow Light Snow
7:15 PM 10.4 °F -3.3 °F 10.4 °F 100% 29.98 in 10.0 mi NW 10.4 mph - N/A   Overcast
7:35 PM 10.4 °F -0.4 °F 8.6 °F 92% 30.00 in 10.0 mi WNW 6.9 mph - N/A   Mostly Cloudy
7:55 PM 10.4 °F -4.8 °F 10.4 °F 100% 30.00 in 10.0 mi WNW 12.7 mph - N/A   Mostly Cloudy
8:15 PM 10.4 °F -1.5 °F 8.6 °F 92% 30.01 in 10.0 mi WNW 8.1 mph - N/A   Overcast
8:35 PM 8.6 °F -5.5 °F 6.8 °F 92% 30.01 in 10.0 mi WNW 10.4 mph - N/A   Mostly Cloudy
8:55 PM 6.8 °F -5.9 °F 5.0 °F 92% 30.01 in 10.0 mi WNW 8.1 mph - N/A   Partly Cloudy
9:15 PM 3.2 °F -9.1 °F -0.4 °F 85% 30.01 in 10.0 mi WNW 6.9 mph - N/A   Clear
9:35 PM -0.4 °F -12.0 °F -2.2 °F 92% 30.02 in 10.0 mi West 5.8 mph - N/A   Clear
9:55 PM -0.4 °F -14.7 °F -4.0 °F 85% 30.03 in 7.0 mi WSW 8.1 mph - N/A   Mostly Cloudy
10:15 PM -0.4 °F -12.0 °F -4.0 °F 85% 30.03 in 9.0 mi West 5.8 mph - N/A   Overcast
10:35 PM -0.4 °F -14.7 °F -2.2 °F 92% 30.02 in 10.0 mi West 8.1 mph - N/A Snow Light Snow
10:55 PM 5.0 °F -9.1 °F 1.4 °F 85% 30.03 in 10.0 mi WNW 9.2 mph - N/A   Overcast
11:15 PM 6.8 °F -9.3 °F 5.0 °F 92% 30.03 in 10.0 mi WNW 12.7 mph - N/A   Overcast
11:35 PM 6.8 °F -6.9 °F 5.0 °F 92% 30.03 in 10.0 mi NW 9.2 mph - N/A   Overcast
11:55 PM 5.0 °F -8.1 °F 1.4 °F 85% 30.03 in 10.0 mi WNW 8.1 mph - N/A   Overcast